Overview Statistics Trail Chart Weather Telemetry Raw packets
 

This is the latest recevied weather packets stored in our database for station/object N1JOV-7. If no packets are shown the sender has not sent any weather packets the latest 10 day(s).

<< 29 30 31 32 33 34 35 >>
Time Temp. Humidity Pressure Rain* Wind** Luminosity Snow
1788189061 21.67° C 56% 1020.8 hPa 0 mm - - -
1788188461 20.56° C 59% 1021.1 hPa 0 mm - - -
1788187861 21.11° C 57% 1021.1 hPa 0 mm - - -
1788187261 20.56° C 60% 1021.2 hPa 0 mm - - -
1788186662 20.56° C 60% 1021.1 hPa 0 mm - - -
1788186062 20° C 63% 1021.2 hPa 0 mm - - -
1788185464 19.44° C 66% 1021.3 hPa 0 mm - - -
1788184862 19.44° C 69% 1021.3 hPa 0 mm - - -
1788184261 20° C 70% 1021.3 hPa 0 mm - - -
1788183661 18.89° C 74% 1021 hPa 0 mm - - -
1788183061 18.33° C 75% 1021 hPa 0 mm - - -
1788182461 17.78° C 78% 1020.8 hPa 0 mm - - -
1788181861 17.22° C 82% 1020.9 hPa 0 mm - - -
1788181261 16.67° C 86% 1020.6 hPa 0 mm - - -
1788180662 16.67° C 90% 1020.6 hPa 0 mm - - -
1788180062 16.11° C 94% 1020.7 hPa 0 mm - - -
1788179462 15° C 97% 1020.7 hPa 0 mm - - -
1788178862 14.44° C 99% 1020.8 hPa 0 mm - - -
1788178262 13.33° C 99% 1020.7 hPa 0 mm - - -
1788177661 12.78° C 99% 1020.8 hPa 0 mm - - -
1788177061 12.78° C 99% 1020.8 hPa 0 mm - - -
1788176461 12.22° C 99% 1020.9 hPa 0 mm - - -
1788175861 12.22° C 99% 1020.8 hPa 0 mm - - -
1788175261 12.22° C 99% 1020.8 hPa 0 mm - - -
1788174661 11.67° C 99% 1020.7 hPa 0 mm - - -

* Rain latest hour (hover to see other rain measurements)
** Current wind speed in m/s (hover to see current wind gust speed)